Tracking 31027 objects as of 19-Jul-2025
HD Live streaming from Space Station
objects crossing your sky now

BREEZE-M DEB (TANK)

Track BREEZE-M DEB (TANK) now!
10-day predictions


NORAD ID: 44309
Int'l Code: 2019-031C
Perigee: 323.0 km
Apogee: 17,032.3 km
Inclination: 49.4 °
Period: 306.2 minutes
Semi major axis: 15048 km
RCS: Unknown
Launch date: May 30, 2019
Source: Commonwealth of Independent States (former USSR) (CIS)
Launch site: TYURATAM MISSILE AND SPACE COMPLEX (TTMTR)

Note: This is SATELLITE DEBRIS
Your satellite tracking list
NUSAT-20 (GRACE)
Track 1 satellite(s)




NASA's NSSDC Master Catalog

Two Line Element Set (TLE):
1 44309U 19031C   25198.98453245  .00003021  00000-0  77112-3 0  9996
2 44309  49.4149 151.8453 5551761 152.8821 252.5225  4.70279811102372
Source of the keplerian elements: AFSPC